Home > Weather > Mutsamudu > Past weeks

Flag for Comoros Weather for the Past 2 Weeks in Mutsamudu, Comoros

Now
81 °F

Passing clouds.


Feels Like: 87 °F
Forecast: 80 / 82 °F
Wind: 9 mph from Northwest

Location: Dzaoudzi / Pamanzi Mayotte

Current Time: Feb 6, 2016 at 3:24:43 AM

Latest Report: Feb 6, 2016 at 2:30 AM


Visibility: N/A

Pressure: 29.77 "Hg

Humidity: 89%

Dew point: 77 °F

Location of MutsamuduLocation

Historic Weather in Mutsamudu — Graph

°F

Mutsamudu Temperature Yesterday

Maximum temperature yesterday: 84 °F (at 12:00 PM)
Minimum temperature yesterday: 75 °F (at 4:30 AM)
Average temperature yesterday: 79 °F

High & Low Weather Summary for the Past Weeks

 TemperatureHumidityPressure
High90 °F (Jan 22, 11:05 AM)94% (Jan 24, 6:30 PM)32.81 "Hg (Jan 24, 6:30 PM)
Low75 °F (Feb 3, 7:00 PM)59% (Jan 22, 11:05 AM)29.71 "Hg (Feb 1, 3:30 AM)
Average81 °F80%29.84 "Hg
* Reported Jan 22 2:00 AM — Feb 6 2:00 AM, Mutsamudu, Weather by CustomWeather, © 2016

Note: Actual official high and low records may vary slightly from our data, if they occured in-between our weather recording intervals... More about our weather records

Advertising

Mutsamudu Weather History for the Previous 24 Hours

 ConditionsComfort  
Time TempWeatherWind HumidityBarometerVisibility
2:00 AM
Sat, Feb 6
81 °FPartly cloudy.6 mph84%29.80 "HgN/A
1:30 AM81 °FWarm.10 mph84%29.80 "HgN/A
1:00 AM81 °FPartly cloudy.9 mph84%29.83 "HgN/A
12:30 AM81 °FWarm.8 mph84%29.83 "HgN/A
12:00 AM79 °FWarm.6 mph89%29.83 "HgN/A
11:30 PM
Fri, Feb 5
79 °FWarm.5 mph84%29.83 "HgN/A
11:00 PM77 °FWarm.2 mph89%29.86 "HgN/A
10:30 PM77 °FWarm.1 mph83%29.86 "HgN/A
10:00 PM79 °FWarm.1 mph84%29.86 "HgN/A
9:30 PM79 °FPassing clouds.3 mph84%29.86 "HgN/A
9:00 PM77 °FMostly cloudy.No wind89%29.86 "HgN/A
8:30 PM77 °FWarm.3 mph89%29.86 "HgN/A
8:00 PM79 °FWarm.3 mph79%29.83 "HgN/A
7:30 PM79 °FWarm.10 mph79%29.83 "HgN/A
7:00 PM79 °FWarm.6 mph84%29.80 "HgN/A
6:30 PM77 °FWarm.3 mph89%29.80 "HgN/A
6:00 PM79 °FBroken clouds.3 mph84%29.80 "HgN/A
5:30 PM79 °FLight rain. Broken clouds.8 mph84%29.80 "HgN/A
5:04 PM79 °FScattered showers. Broken clouds.5 mph84%29.80 "HgN/A
4:30 PM79 °FScattered showers. Broken clouds.5 mph84%29.80 "HgN/A
4:00 PM79 °FScattered showers. Broken clouds.5 mph84%29.80 "HgN/A
3:30 PM81 °FSprinkles. Broken clouds.14 mph79%29.80 "HgN/A
3:09 PM81 °FScattered showers. Broken clouds.14 mph79%29.80 "HgN/A
2:30 PM82 °FBroken clouds.16 mph79%29.77 "HgN/A
2:00 PM82 °FScattered showers. Broken clouds.13 mph79%29.80 "HgN/A
1:35 PM82 °FBroken clouds.16 mph79%29.80 "HgN/A
1:00 PM82 °FBroken clouds.20 mph79%29.80 "Hg6 mi
12:30 PM84 °FBroken clouds.9 mph74%29.80 "HgN/A
12:00 PM84 °FBroken clouds.8 mph74%29.83 "HgN/A
11:30 AM82 °FBroken clouds.6 mph79%29.83 "HgN/A
11:00 AM81 °FBroken clouds.9 mph79%29.86 "HgN/A
10:30 AM81 °FBroken clouds.7 mph79%29.86 "HgN/A
10:00 AM81 °FBroken clouds.10 mph84%29.86 "HgN/A
9:30 AM81 °FScattered showers. Broken clouds.13 mph79%29.86 "HgN/A
9:00 AM77 °FBroken clouds.16 mph89%29.86 "HgN/A
8:30 AM77 °FLight rain. More clouds than sun.14 mph89%29.86 "HgN/A
8:00 AM77 °FScattered showers. More clouds than sun.15 mph89%29.89 "HgN/A
7:30 AM77 °FScattered showers. More clouds than sun.12 mph89%29.89 "HgN/A
7:00 AM77 °FMore clouds than sun.6 mph89%29.86 "HgN/A
6:30 AM77 °FMore clouds than sun.12 mph89%29.86 "HgN/A
6:00 AM77 °FLight rain. More clouds than sun.7 mph89%29.86 "HgN/A
5:30 AM75 °FLight rain. Mostly cloudy.7 mph94%29.83 "HgN/A
5:00 AM77 °FLight rain. Mostly cloudy.7 mph89%29.83 "HgN/A
4:30 AM75 °FHeavy rain. Fog.6 mph94%29.83 "Hg3 mi
4:00 AM77 °FHeavy rain. Fog.10 mph89%29.83 "Hg3 mi
3:30 AM77 °FHeavy rain. Fog.9 mph89%29.83 "Hg3 mi
3:00 AM77 °FLight rain. Partly cloudy.13 mph89%29.83 "Hg5 mi
Weather by CustomWeather, © 2016

See weather overviewHow to use our weather pages